sat.trackr.live / text

‹ back to catalog

STARLINK-33874

NORAD 63825 · 2025-092X

PAYLOAD ACTIVE UNKNOWN

§ Identity

Operator
Country
US
Launch date
2025-05-04
Launch site
AFETR
Launch vehicle
Mass (kg)
RCS (m²)

Purposes: comms

External: N2YO · Heavens-Above · Gunter

§ Orbital elements

Epoch: 2026-05-24T22:17:19.914144Z

Period
94.26 min
Inclination
43.0025°
Eccentricity
0.0001195
Mean motion
15.27609089 rev/d
Perigee alt
482.1 km
Apogee alt
483.8 km
Semi-major
6,861.1 km
B*
6.5381e-4
RAAN
102.0580°
Arg perigee
269.2787°
Mean anomaly
90.7927°
Rev number
6,032

§ Raw data

STARLINK-338741 63825U 25092X   26144.92870271  .00017789  00000+0  65381-3 0  99922 63825  43.0025 102.0580 0001195 269.2787  90.7927 15.27609089 60325

JSON: /api/v1/satellites/63825 · /tle

For live sub-satellite position, see the globe view (requires WebGL).

§ Visibility from observer

Set your observer location to see the next 7 days of passes ≥ 10°. The values pass through the URL so the page stays shareable.

No JS? Fill the form by hand. The geolocation button needs JavaScript.